Live-Position
3D-Globus wird geladen...
Über OneWeb SL0352
Group: 3 satellites
Beschreibung wird geladen...
Nächste Überflüge
Passes for default location (London). Set your location on the main map for personalized predictions.
Höhenverlauf
Loading altitude history...
No altitude history available
Zweizeiliger Elementsatz
1 49216U 21083AG 26106.85443714 .00000221 00000-0 57098-3 0 9994
2 49216 87.8983 332.4491 0001935 72.4782 287.6558 13.13469529222977
Epoch: 16. Apr. 2026 •
Age: 7 hours
Aktueller Status
Höhe 1232.4 km
Geschwindigkeit 7.24 km/s
Subsatellitenpunkt -54.69°S,
97.65°W
Startdatum 14. Sept. 2021
Alter 4.5 years
Typ internet
Startgruppe
Unknown Vehicle •
OneWeb Launch 10 •
34 satellites
OneWeb SL0292
49186
OneWeb SL0303 49187
OneWeb SL0306 49188
OneWeb SL0307 49189
OneWeb SL0320 49190
OneWeb SL0321 49191
OneWeb SL0322 49192
OneWeb SL0324 49193
OneWeb SL0325 49194
OneWeb SL0326 49195
OneWeb SL0327 49196
OneWeb SL0328 49197
OneWeb SL0331 49198
OneWeb SL0333 49199
OneWeb SL0334 49200
OneWeb SL0335 49201
OneWeb SL0336 49202
OneWeb SL0337 49203
OneWeb SL0338 49204
OneWeb SL0339 49205
...and 13 more
Technische Details
Klassifizierung Payload
Masse 148.00 kg
Trockenmasse 140.00 kg
Gesamtmasse 148.00 kg
Länge 1.30 m
Durchmesser 1.00 m
Spannweite 5.00 m
Form Trapezoid+2 pan
Hersteller ONEWUS
Bus-Typ ARROW
Phasenstatus In Orbit
Besitzer/Staat ONEWEBN/UK
Most Searched
Loading...